Date,TemperatureHighF,TemperatureAvgF,TemperatureLowF,DewpointHighF,DewpointAvgF,DewpointLowF,HumidityHigh,HumidityAvg,HumidityLow,PressureMaxIn,PressureMinIn,WindSpeedMaxMPH,WindSpeedAvgMPH,GustSpeedMaxMPH,PrecipitationSumIn
2013-1-22,74.8,64.8,59.3,47.0,31.2,18.0,58,30,17,30.04,29.99,11,3,11,0.00
2013-1-23,74.9,59.5,53.9,50.0,38.8,20.0,87,51,19,30.05,29.93,21,3,21,0.00
2013-1-24,64.0,57.9,53.0,59.0,54.7,48.0,94,89,72,30.12,29.99,16,6,16,0.51
2013-1-25,66.5,60.5,56.2,57.0,55.2,52.0,93,83,69,30.11,29.97,14,5,16,0.04
2013-1-26,58.2,56.2,54.6,54.0,52.9,51.0,94,89,82,29.98,29.94,12,5,17,0.00
2013-2-5,53.5,51.6,49.3,49.0,47.9,45.0,91,87,84,30.08,30.01,13,4,13,0.00
2013-2-6,56.1,51.3,45.6,49.0,45.5,38.0,90,81,73,30.14,30.07,10,5,14,0.00
2013-2-7,55.6,50.8,45.6,50.0,45.7,41.0,88,83,72,30.14,30.00,13,7,16,0.00
2013-2-8,52.9,47.4,43.3,46.0,42.0,38.0,89,82,71,30.01,29.89,14,5,20,0.08
2013-2-9,54.2,49.3,45.8,47.0,43.5,40.0,87,80,70,30.08,29.96,12,5,17,0.00
2013-2-10,56.4,49.3,44.2,50.0,43.6,37.0,88,81,74,30.08,29.99,9,3,9,0.00
2013-2-11,55.5,50.2,44.8,49.0,44.2,37.0,90,80,66,30.22,30.04,10,3,10,0.00
2013-2-12,55.5,50.8,46.4,51.0,47.4,43.0,92,88,83,30.32,30.23,10,4,12,0.00
2013-2-13,57.4,51.9,46.6,52.0,46.2,41.0,90,81,67,30.28,30.15,13,4,14,0.00
2013-2-14,63.5,56.6,50.1,52.0,46.2,41.0,85,69,43,30.18,30.06,13,5,18,0.00
2013-2-15,78.9,64.9,56.6,54.0,41.8,34.0,75,45,20,30.18,30.12,18,5,22,0.00
2013-2-16,71.2,62.6,54.1,54.0,41.2,27.0,74,48,19,30.15,29.99,17,5,20,0.00
2013-2-17,56.1,51.7,47.2,51.0,46.7,38.0,91,83,54,30.00,29.93,14,5,19,0.00
2013-2-18,51.8,49.7,47.7,49.0,45.8,43.0,92,86,77,30.04,29.95,13,4,18,0.00
2013-2-19,51.0,47.5,42.4,47.0,41.4,35.0,92,79,68,29.96,29.74,20,6,30,0.09
2013-2-20,54.6,48.0,38.8,47.0,40.6,32.0,85,76,61,30.04,29.78,17,8,24,0.00
2013-2-21,55.3,49.5,42.5,48.0,42.2,37.0,82,76,67,30.14,30.01,15,5,17,0.00
2013-2-22,57.7,51.2,46.1,51.0,44.2,38.0,88,77,66,30.20,30.13,10,4,12,0.00
2013-2-23,55.2,51.8,47.4,49.0,44.5,34.0,90,77,53,30.20,30.03,18,6,23,0.00
2013-2-24,58.3,53.3,47.7,47.0,32.8,22.0,71,47,28,30.22,30.08,11,4,15,0.00
2013-2-25,55.3,51.2,46.3,49.0,43.0,34.0,88,74,54,30.23,30.09,12,4,14,0.00
2013-2-26,62.2,53.2,48.0,51.0,44.3,34.0,84,72,43,30.15,30.04,11,3,12,0.00
2013-2-27,58.7,52.5,48.6,53.0,45.9,37.0,90,79,62,30.30,30.15,11,3,12,0.00
2013-2-28,61.8,53.9,49.8,53.0,48.3,40.0,90,81,60,30.37,30.29,14,3,16,0.00
2013-3-1,68.3,61.5,52.5,55.0,49.6,46.0,87,66,45,30.36,30.15,14,5,16,0.00
2013-3-2,68.5,58.3,51.7,55.0,49.4,42.0,95,74,39,30.18,30.04,21,4,21,0.00
2013-3-3,56.0,52.9,49.7,52.0,50.4,47.0,94,91,79,30.08,30.00,14,6,16,0.00
2013-3-4,54.4,51.0,48.8,50.0,47.8,46.0,93,89,83,30.11,30.01,14,4,17,0.00
2013-3-5,55.6,51.6,50.1,48.0,45.4,44.0,89,80,70,30.09,30.00,16,4,17,0.00
2013-3-6,56.2,51.3,48.3,54.0,48.1,44.0,95,89,79,30.09,29.99,21,7,26,0.33
2013-3-7,55.0,50.9,46.6,50.0,45.5,41.0,91,82,69,29.99,29.80,14,4,16,0.13
2013-3-8,53.6,49.5,46.3,49.0,45.5,43.0,91,86,80,30.07,29.76,27,7,28,0.08
2013-3-9,55.4,51.6,45.5,50.0,45.4,39.0,87,79,69,30.27,30.07,14,6,18,0.01
2013-3-10,54.1,51.4,48.3,51.0,48.0,44.0,93,88,80,30.31,30.21,12,4,14,0.02
2013-3-11,55.0,49.6,44.5,52.0,47.5,43.0,96,93,88,30.21,30.05,9,0,12,0.00
2013-3-12,55.6,50.9,46.5,52.0,48.8,45.0,96,92,87,30.09,30.01,1,0,1,0.00
2013-3-13,52.8,48.9,45.2,51.0,47.8,44.0,97,96,94,30.10,30.04,11,1,14,0.01
2013-3-14,53.8,49.5,46.2,52.0,48.5,45.0,97,96,93,30.11,30.02,13,2,15,0.00
2013-3-15,58.7,53.8,50.1,54.0,51.2,49.0,96,91,81,30.04,29.94,17,4,17,0.00
2013-3-16,55.9,51.7,46.5,53.0,49.6,45.0,96,93,87,30.03,29.95,1,0,1,0.00
2013-3-17,56.2,52.0,48.9,51.0,48.5,45.0,92,88,83,30.05,29.97,0,0,0,0.00
2013-3-18,56.1,51.1,47.3,52.0,48.3,45.0,93,90,81,30.08,29.96,0,0,0,0.00
2013-3-19,65.0,54.4,49.9,56.0,50.0,47.0,92,86,53,30.09,30.01,1,0,1,0.02
2013-3-20,61.6,55.4,50.3,52.0,49.3,45.0,95,80,56,30.09,30.02,10,0,11,0.00
2013-3-21,55.3,51.8,48.8,51.0,48.4,45.0,96,88,81,30.04,29.91,0,0,0,0.00
2013-3-22,58.9,52.3,47.3,52.0,47.2,33.0,91,83,38,29.99,29.91,13,1,13,0.00
2013-3-23,62.7,52.9,49.0,51.0,45.0,33.0,88,75,44,30.05,29.96,12,1,15,0.00
2013-3-24,57.5,51.5,47.6,51.0,47.1,42.0,92,85,74,30.03,29.91,10,0,11,0.00
2013-3-25,54.3,50.3,46.1,51.0,47.6,44.0,95,91,85,29.97,29.89,0,0,0,0.00
2013-3-26,56.2,51.2,47.8,51.0,47.9,46.0,93,89,81,29.99,29.91,7,0,9,0.00
2013-3-27,57.8,52.3,48.3,53.0,50.1,46.0,95,92,85,30.04,29.93,0,0,0,0.00
2013-3-28,58.9,54.9,52.1,56.0,52.7,50.0,95,92,87,30.06,29.99,0,0,0,0.00
2013-3-29,53.7,51.3,47.8,52.0,49.9,47.0,96,95,93,30.09,30.01,1,0,1,0.00
2013-3-30,63.8,55.7,51.0,55.0,52.4,50.0,97,89,73,30.09,30.00,10,2,10,0.03
2013-3-31,61.1,55.2,53.4,58.0,53.6,52.0,96,94,86,30.08,30.02,8,2,11,0.00
2013-4-1,53.9,53.8,53.7,53.0,53.0,53.0,96,96,96,30.07,30.06,6,2,8,0.00
2013-4-2,57.2,53.7,51.4,54.0,52.0,50.0,95,93,88,30.08,30.02,0,0,16,0.00
2013-4-3,58.0,52.1,48.6,56.0,50.9,48.0,97,96,91,30.08,29.98,12,2,17,0.00
2013-4-4,60.1,54.6,50.3,56.0,52.7,49.0,97,93,83,30.11,30.03,10,2,14,0.00
2013-4-5,58.8,54.7,51.7,56.0,53.0,51.0,97,94,88,30.14,30.06,15,4,17,0.00
2013-4-6,60.2,54.6,51.3,55.0,51.9,48.0,95,91,80,30.16,30.06,8,1,11,0.00
2013-4-7,58.3,54.0,50.7,55.0,51.3,48.0,95,90,85,30.10,29.90,1,0,9,0.00
2013-4-8,56.9,52.6,49.8,51.0,47.1,44.0,96,82,72,29.91,29.81,9,0,16,0.00
2013-4-9,68.0,54.7,49.1,50.0,47.0,36.0,91,77,31,30.01,29.90,5,0,9,0.00
2013-4-10,63.2,55.0,50.3,52.0,47.4,39.0,89,76,45,30.12,29.99,9,1,12,0.00
2013-4-11,56.3,51.6,47.8,50.0,48.3,46.0,94,89,78,30.02,29.80,0,0,0,0.00
2013-4-12,54.7,50.1,46.9,51.0,47.7,45.0,95,91,86,29.86,29.77,0,0,2,0.00
2013-4-13,54.9,50.4,47.0,51.0,47.7,45.0,95,91,81,29.91,29.80,0,0,0,0.00
2013-4-14,54.8,50.8,46.8,51.0,47.0,45.0,93,87,76,29.87,29.78,12,0,14,0.00
2013-4-15,53.6,50.7,46.5,49.0,45.5,40.0,92,83,73,29.94,29.84,0,0,0,0.00
2013-4-16,55.6,49.5,42.0,47.0,41.5,34.0,81,74,68,30.06,29.94,0,0,4,0.00
2013-4-17,59.7,52.2,45.8,47.0,43.5,40.0,87,73,57,30.17,30.06,1,0,4,0.00
2013-4-18,59.2,53.5,49.2,51.0,44.1,32.0,91,71,44,30.21,30.15,1,0,2,0.00
2013-4-19,60.5,52.5,48.1,52.0,48.3,44.0,92,86,72,30.19,30.00,0,0,1,0.00
2013-4-20,60.7,52.8,48.7,54.0,49.1,46.0,93,88,76,30.03,29.92,0,0,1,0.00
2013-4-21,61.2,53.5,48.3,55.0,50.2,46.0,94,89,78,29.97,29.89,1,0,3,0.00
2013-4-22,58.1,53.3,50.7,54.0,50.9,49.0,95,92,85,29.98,29.86,1,0,1,0.00
2013-4-23,61.5,54.1,50.7,56.0,51.5,49.0,96,91,79,29.95,29.86,9,1,10,0.00
2013-4-24,58.3,54.5,50.9,54.0,51.7,50.0,96,90,81,29.95,29.84,1,0,4,0.00
2013-4-25,60.8,55.9,52.3,55.0,51.7,49.0,90,86,78,30.09,29.95,10,2,12,0.00
2013-4-26,57.5,53.0,50.6,53.0,50.4,48.0,94,91,84,30.17,30.08,0,0,1,0.00
2013-4-27,54.1,51.4,49.2,52.0,49.7,48.0,96,94,90,30.17,30.03,0,0,2,0.00
2013-4-28,55.0,51.3,48.3,52.0,49.5,47.0,97,94,88,30.04,29.85,17,3,18,0.00
2013-4-29,55.9,51.3,48.6,54.0,49.9,48.0,97,95,90,29.88,29.76,5,1,7,0.00
2013-4-30,51.5,51.0,50.3,51.0,50.2,49.0,97,97,96,29.80,29.77,1,0,1,0.00